This is the latest recevied weather packets stored in our database for station/object W4SPD. If no packets are shown the sender has not sent any weather packets the latest 1 day(s).
| Time | Temp. | Humidity | Pressure | Rain* | Wind** | Luminosity | Snow |
|---|---|---|---|---|---|---|---|
| 1778034823 | 19.44° C | 63% | - | 0 mm | - | - | - |
| 1778034217 | 19.44° C | 65% | - | 0 mm | - | - | - |
| 1778033612 | 20° C | 61% | - | 0 mm | - | - | - |
| 1778033308 | 20° C | 61% | - | 0 mm | - | - | - |
| 1778033007 | 20° C | 58% | - | 0 mm | - | - | - |
| 1778032704 | 20° C | 61% | - | 0 mm | - | - | - |
| 1778032097 | 20° C | 65% | - | 0 mm | - | - | - |
| 1778031189 | 20° C | 56% | - | 0 mm | - | - | - |
| 1778030885 | 20° C | 54% | - | 0 mm | - | - | - |
| 1778030582 | 20° C | 57% | - | 0 mm | - | - | - |
| 1778030279 | 20° C | 56% | - | 0 mm | - | - | - |
| 1778029674 | 20° C | 60% | - | 0 mm | - | - | - |
| 1778029371 | 20.56° C | 58% | - | 0 mm | - | - | - |
| 1778029068 | 20.56° C | 56% | - | 0 mm | - | - | - |
| 1778027854 | 21.11° C | 54% | - | 0 mm | - | - | - |
| 1778027551 | 21.11° C | 58% | - | 0 mm | - | - | - |
| 1778026943 | 21.67° C | 59% | - | 0 mm | - | - | - |
| 1778026639 | 21.67° C | 57% | - | 0 mm | - | - | - |
| 1778026337 | 22.22° C | 56% | - | 0 mm | - | - | - |
| 1778024823 | 22.78° C | 50% | - | 0 mm | - | - | - |
| 1778022705 | 23.89° C | 46% | - | 0 mm | - | - | - |
| 1778021795 | 24.44° C | 43% | - | 0 mm | - | - | - |
| 1778020279 | 24.44° C | 46% | - | 0 mm | - | - | - |
| 1778018158 | 24.44° C | 40% | - | 0 mm | - | - | - |
| 1778017554 | 25° C | 38% | - | 0 mm | - | - | - |
* Rain latest hour (hover to see other rain measurements)
** Current wind speed in m/s (hover to see current wind gust speed)